This demonstration page uses our WeatherBlox Daily Observations layout. Learn more.

Left ArrowRight Arrow

38.88101, -77.10428

Hourly Observations for January 10, 2022

Temp ( °F °C ) Dew Point ( °F °C ) Humidity (%) Winds ( mph kmh ) Pressure ( in mb ) Visibility ( mi km ) Precip ( " mm )
12:52 am 00:52 Mostly Cloudy 42 5.6 29 -1.7 60 60 NNW 18 30 30.13 1020 10 16 0.00 0.00
1:52 am 01:52 Cloudy 40 4.4 26 -3.3 58 58 NW 16 26 30.15 1021 10 16 0.00 0.00
2:52 am 02:52 Cloudy 39 3.9 23 -5 53 53 NW 13 20 30.15 1021 10 16 0.00 0.00
3:52 am 03:52 Cloudy 37 2.8 19 -7.2 48 48 NW 16 26 30.17 1022 10 16 0.00 0.00
4:52 am 04:52 Cloudy 36 2.2 16 -8.9 44 44 NNW 12 19 30.18 1022 10 16 0.00 0.00
5:52 am 05:52 Cloudy 33 0.6 15 -9.4 47 47 NNW 10 17 30.20 1023 10 16 0.00 0.00
6:52 am 06:52 Mostly Cloudy 32 0 15 -9.4 50 50 N 8 13 30.23 1024 10 16 0.00 0.00
7:52 am 07:52 Partly Cloudy 32 0 9 -12.8 38 38 NNW 21 33 30.26 1025 10 16 0.00 0.00
8:52 am 08:52 Mostly Sunny 32 0 9 -12.8 38 38 NW 18 30 30.28 1025 10 16 0.00 0.00
9:52 am 09:52 Mostly Sunny 32 0 10 -12.2 40 40 NNW 20 31 30.30 1026 10 16 0.00 0.00
10:52 am 10:52 Mostly Sunny 32 0 8 -13.3 36 36 NW 12 19 30.31 1027 10 16 0.00 0.00
11:52 am 11:52 Partly Cloudy 34 1.1 9 -12.8 35 35 N 16 26 30.28 1025 10 16 0.00 0.00
12:52 pm 12:52 Partly Cloudy 35 1.7 9 -12.8 34 34 NW 14 22 30.25 1025 10 16 0.00 0.00
1:52 pm 13:52 Mostly Sunny 36 2.2 10 -12.2 34 34 NW 13 20 30.22 1023 10 16 0.00 0.00
2:52 pm 14:52 Mostly Sunny 38 3.3 12 -11.1 34 34 WNW 12 19 30.20 1023 10 16 0.00 0.00
3:52 pm 15:52 Partly Cloudy 38 3.3 12 -11.1 34 34 W 8 13 30.19 1022 10 16 0.00 0.00
4:52 pm 16:52 Mostly Cloudy 38 3.3 14 -10 37 37 W 15 24 30.22 1023 10 16 0.00 0.00
5:52 pm 17:52 Mostly Cloudy 35 1.7 14 -10 42 42 NW 13 20 30.24 1024 10 16 0.00 0.00
6:52 pm 18:52 Partly Cloudy 33 0.6 14 -10 45 45 WNW 15 24 30.27 1025 10 16 0.00 0.00
7:52 pm 19:52 Mostly Clear 32 0 11 -11.7 41 41 WNW 22 35 30.29 1026 10 16 0.00 0.00
8:52 pm 20:52 Mostly Clear 30 -1.1 9 -12.8 41 41 NW 16 26 30.30 1026 10 16 0.00 0.00
10:52 pm 22:52 Partly Cloudy 29 -1.7 9 -12.8 43 43 WNW 12 19 30.33 1027 10 16 0.00 0.00
11:52 pm 23:52 Partly Cloudy 28 -2.2 9 -12.8 44 44 WNW 10 17 30.35 1028 10 16 0.00 0.00

Powered by AerisWeather